Miscellaneous Local Product
Issued by NWS Hastings, NE

Home | Current Version | Previous Version | Text Only | Print | Product List | Glossary On
Versions: 1 2 3 4 5 6 7 8 9 10 11 12 13 14 15 16 17 18 19 20 21 22 23 24 25 26 27 28 29 30 31 32 33 34 35 36 37 38 39 40 41 42 43 44 45 46 47 48 49 50
000
AXUS43 KGID 300902
MISGRI

GID CWA HOURLY WEATHER ROUNDUP
NATIONAL WEATHER SERVICE HASTINGS NE
400 AM CDT WED JUL 30 2014

NOTE: "FAIR" INDICATES FEW OR NO CLOUDS BELOW 12,000 FEET WITH NO
SIGNIFICANT WEATHER AND/OR OBSTRUCTIONS TO VISIBILITY.

...SOUTH CENTRAL NEBRASKA...

CITY           SKY/WX    TMP DP  RH WIND       PRES   REMARKS
GRAND ISLAND   CLOUDY    64  59  83 CALM      30.16S
HASTINGS       CLOUDY    65  53  65 SE7       30.15S
KEARNEY        CLOUDY    64  57  77 E3        30.16S
ORD            PTCLDY    56  55  97 CALM      30.15F
YORK           CLOUDY    63  59  88 CALM      30.15S
AURORA         CLOUDY    61  60  96 CALM      30.15S
LEXINGTON      CLOUDY    66  59  78 CALM      30.17S
HOLDREGE       CLOUDY    64  56  77 SE3       30.16S
HEBRON         CLOUDY    64  56  75 CALM      30.13F

...NEBRASKA PANHANDLE...

CITY           SKY/WX    TMP DP  RH WIND       PRES   REMARKS
CHADRON        PTCLDY    55  53  93 CALM      30.23S
ALLIANCE       CLOUDY    62  53  72 N5        30.24S
SCOTTSBLUFF    CLOUDY    63  59  87 NE5       30.24F
SIDNEY         LGT RAIN  62  60  93 CALM      30.25F

...WESTERN AND NORTH CENTRAL NEBRASKA...

CITY           SKY/WX    TMP DP  RH WIND       PRES   REMARKS
VALENTINE      PTCLDY    51  49  92 SW5       30.19S
AINSWORTH      PTCLDY    54  50  87 CALM      30.18F
ONEILL         PTCLDY    55  52  89 SW3       30.16F
BROKEN BOW     MOCLDY    58  56  93 CALM      30.17F
IMPERIAL       CLOUDY    63  60  90 SE8       30.19F
NORTH PLATTE   CLOUDY    64  60  87 E3        30.18F
MCCOOK         LGT RAIN  63  61  93 E5        30.17S

...EASTERN NEBRASKA...

CITY           SKY/WX    TMP DP  RH WIND       PRES   REMARKS
NORFOLK        PTCLDY    56  53  90 CALM      30.14F
SO SIOUX CITY  PTCLDY    53  51  93 CALM      30.13S
TEKAMAH        PTCLDY    53  50  89 CALM      30.12S
ALBION         PTCLDY    54  53  94 CALM      30.16S
OMAHA EPPLEY   PTCLDY    57  54  89 NW7       30.12F
MILLARD        CLEAR     59  57  94 CALM      30.12S
LINCOLN        MOCLDY    59  56  89 N6        30.13F
NEBRASKA CITY  MOCLDY    60  57  88 N3        30.12S
BEATRICE       CLOUDY    60  58  92 CALM      30.13S
FALLS CITY     MOCLDY    59  56  89 NW3       30.11S

...NORTHERN KANSAS...

CITY           SKY/WX    TMP DP  RH WIND       PRES   REMARKS
GOODLAND       CLOUDY    62  62 100 N12       30.15S
HILL CITY      CLOUDY    69  56  62 NE13      30.13R
NORTON         RAIN      63  57  82 NE8       30.15R
PHILLIPSBURG   HVY RAIN  63  63 100 NE12      30.14S VSB 1
SMITH CENTER   CLOUDY    61  61 100 E9        30.14F
HAYS           CLOUDY    70  55  60 NE10      30.09F
RUSSELL        CLOUDY    69  58  67 E9        30.09R
CONCORDIA      CLOUDY    65  65 100 CALM      30.13R
SALINA         CLOUDY    72  58  61 NE10      30.09F
TOPEKA         CLOUDY    70  63  78 CALM      30.10S



USA.gov is the U.S. government's official web portal to all federal, state and local government web resources and services.